Miscellaneous Local Product
Issued by NWS Hastings, NE

Home | Current Version | Previous Version | Graphics & Text | Print | Product List | Glossary On
Versions: 1 2 3 4 5 6 7 8 9 10 11 12 13 14 15 16 17 18 19 20 21 22 23 24 25 26 27 28 29 30 31 32 33 34 35 36 37 38 39 40 41 42 43 44 45 46 47 48 49 50
000
AXUS43 KGID 231602
MISGRI

GID CWA HOURLY WEATHER ROUNDUP
NATIONAL WEATHER SERVICE HASTINGS NE
1100 AM CDT TUE MAY 23 2017

NOTE: "FAIR" INDICATES FEW OR NO CLOUDS BELOW 12,000 FEET WITH NO
SIGNIFICANT WEATHER AND/OR OBSTRUCTIONS TO VISIBILITY.

...SOUTH CENTRAL NEBRASKA...

CITY           SKY/WX    TMP DP  RH WIND       PRES   REMARKS
GRAND ISLAND   CLOUDY    58  45  62 NW21G29   29.96S
HASTINGS       CLOUDY    58  46  64 NW20G29   29.97F
KEARNEY        CLOUDY    57  43  58 N20G29    29.99S
ORD            CLOUDY    53  39  59 N22G30    29.97S
YORK           CLOUDY    55  46  71 NW18G24   29.93F
AURORA         CLOUDY    58  45  63 NW21      29.94F
LEXINGTON      CLOUDY    58  46  64 NW23G29   30.02S
HOLDREGE       CLOUDY    55  44  64 N20G29    30.00S
HEBRON         CLOUDY    59  47  65 NW9       29.94F

...NEBRASKA PANHANDLE...

CITY           SKY/WX    TMP DP  RH WIND       PRES   REMARKS
CHADRON        SUNNY     55  39  54 N13       30.15F
ALLIANCE       CLOUDY    50  38  63 N20       30.14S
SCOTTSBLUFF    CLOUDY    57  36  45 NW22G28   30.15F
SIDNEY         CLOUDY    52  39  61 N17G24    30.15F

...WESTERN AND NORTH CENTRAL NEBRASKA...

CITY           SKY/WX    TMP DP  RH WIND       PRES   REMARKS
VALENTINE      CLOUDY    55  36  48 N20G31    30.04F
AINSWORTH      CLOUDY    48  40  74 N17G23    30.03S
ONEILL         LGT RAIN  47  43  85 NW17      29.98F
BROKEN BOW     CLOUDY    54  38  54 N24       30.01R
IMPERIAL       PTSUNNY   56  38  50 N20G29    30.10S
NORTH PLATTE   MOSUNNY   58  41  53 N17G28    30.05F
MCCOOK         CLOUDY    59  41  51 NW23G31   30.05S

...EASTERN NEBRASKA...

CITY           SKY/WX    TMP DP  RH WIND       PRES   REMARKS
NORFOLK        CLOUDY    52  41  66 NW16G25   29.90F
SO SIOUX CITY  CLOUDY    55  46  71 NW20      29.89F
TEKAMAH        CLOUDY    55  45  68 NW18      29.89F
ALBION         CLOUDY    54  41  61 N14G22    29.95R
OMAHA EPPLEY   CLOUDY    56  45  66 NW10      29.90S
OFFUTT AFB     CLOUDY    56  44  63 NW15      29.89F
MILLARD        CLOUDY    57  46  64 NW12G17   29.90F
LINCOLN        CLOUDY    59  46  62 NW7       29.93F
NEBRASKA CITY  MOSUNNY   57  39  51 N14       29.90F
BEATRICE       CLOUDY    60  47  62 NW12      29.92F
FALLS CITY     SUNNY     61  46  57 NW9       29.89F

...NORTHERN KANSAS...

CITY           SKY/WX    TMP DP  RH WIND       PRES   REMARKS
GOODLAND       MOSUNNY   56  43  61 N22       30.10F
HILL CITY      MOSUNNY   62  45  53 NW16G25   30.04F
HAYS           SUNNY     62  44  51 NW16      30.01F
RUSSELL        SUNNY     61  46  57 NW18      29.99F
CONCORDIA      CLOUDY    59  47  64 NW12      29.95F
SALINA         SUNNY     64  47  53 NW17      29.96F
TOPEKA         MOSUNNY   62  50  64 NW13      29.90F



USA.gov is the U.S. government's official web portal to all federal, state and local government web resources and services.